Wetterdaten Winter 2016/2017

Datum T max T min Regen
01.12.2016 5.1 °C -3.7 °C 0 mm
02.12.2016 5.9 °C 2.7 °C 0.4 mm
03.12.2016 3.8 °C -4.1 °C 0 mm
04.12.2016 1.1 °C -7.2 °C 0 mm
05.12.2016 2.2 °C -4.6 °C 0 mm
06.12.2016 -1.9 °C -4.3 °C 0 mm
07.12.2016 -0.7 °C -3.4 °C 0 mm
08.12.2016 4.1 °C -3.8 °C 0.2 mm
09.12.2016 6.2 °C -3.6 °C 0 mm
10.12.2016 7.3 °C -2.6 °C 0 mm
11.12.2016 7.7 °C -2.8 °C 0.6 mm
12.12.2016 6.7 °C 0.7 °C 0 mm
13.12.2016 5.1 °C -1.6 °C 0.2 mm
14.12.2016 7.5 °C 0.1 °C 0 mm
15.12.2016 6.9 °C -1.2 °C 0 mm
16.12.2016 4.2 °C 2.4 °C 0 mm
17.12.2016 2.4 °C -1.6 °C 0.4 mm
18.12.2016 2.8 °C 0.7 °C 0.4 mm
19.12.2016 3.7 °C 1.2 °C 0 mm
20.12.2016 2.7 °C -3.3 °C 0 mm
21.12.2016 -0.7 °C -4.2 °C 0 mm
22.12.2016 1 °C -4.3 °C 1.8 mm
23.12.2016 5.2 °C 0.9 °C 0.4 mm
24.12.2016 7.7 °C 4.7 °C 0.8 mm
25.12.2016 8.6 °C 6.8 °C 0 mm
26.12.2016 9.8 °C 2.4 °C 2 mm
27.12.2016 4.4 °C -0.2 °C 0.2 mm
28.12.2016 3.8 °C -0.7 °C 0 mm
29.12.2016 4.7 °C -3.4 °C 0 mm
30.12.2016 1.7 °C -5.3 °C 0 mm
31.12.2016 -1.8 °C -8.5 °C 0.2 mm
01.01.2017 -3.5 °C -6.2 °C 0 mm
02.01.2017 0.1 °C -3.5 °C 0.8 mm
03.01.2017 1.1 °C -1.9 °C 0 mm
04.01.2017 2.5 °C -0.3 °C 0.6 mm
05.01.2017 0.9 °C -5.2 °C 0 mm
06.01.2017 -4.5 °C -9.9 °C 0 mm
07.01.2017 -3.3 °C -10.4 °C 0.2 mm
08.01.2017 -0.4 °C -4 °C 1 mm
09.01.2017 0.8 °C -0.5 °C 0 mm
10.01.2017 0.2 °C -1.4 °C 0.2 mm
11.01.2017 4.9 °C -1.1 °C 1.2 mm
12.01.2017 5.4 °C 2.9 °C 1.2 mm
13.01.2017 5.3 °C -1.7 °C 0.8 mm
14.01.2017 2.1 °C -0.8 °C 1.2 mm
15.01.2017 1.3 °C -2.3 °C 1.2 mm
16.01.2017 -1.4 °C -5.8 °C 0.4 mm
17.01.2017 -1.8 °C -7.8 °C 0 mm
18.01.2017 -1.8 °C -6.5 °C 0 mm
19.01.2017 -0.9 °C -10.5 °C 0 mm
20.01.2017 -0.6 °C -11.1 °C 0 mm
21.01.2017 -0.5 °C -10.6 °C 0 mm
22.01.2017 -2.1 °C -11.8 °C 0 mm
23.01.2017 -3.4 °C -13 °C 0 mm
24.01.2017 -4.9 °C -8.7 °C 0 mm
25.01.2017 -3.3 °C -8.2 °C 0 mm
26.01.2017 0.1 °C -6.8 °C 0 mm
27.01.2017 3.6 °C -8.3 °C 0 mm
28.01.2017 4.1 °C -8.6 °C 0 mm
29.01.2017 6.6 °C -6.6 °C 0 mm
30.01.2017 6.2 °C -2.2 °C 2.2 mm
31.01.2017 6.1 °C 1.4 °C 3 mm
01.02.2017 6.4 °C 1.2 °C 0 mm
02.02.2017 10.8 °C 2.4 °C 0.4 mm
03.02.2017 10.4 °C 4.3 °C 0.4 mm
04.02.2017 8.8 °C 0.5 °C 0 mm
05.02.2017 8.6 °C 0.4 °C 0.2 mm
06.02.2017 6.5 °C 1.6 °C 0 mm
07.02.2017 7.7 °C 0.1 °C 0 mm
08.02.2017 6 °C -1.8 °C 0 mm
09.02.2017 1.4 °C -4.2 °C 0 mm
10.02.2017 2.4 °C -1.9 °C 0 mm
11.02.2017 8.7 °C -3.1 °C 0 mm
12.02.2017 4.9 °C 0 °C 0 mm
13.02.2017 5.7 °C -1.6 °C 0 mm
14.02.2017 9.8 °C -3.8 °C 0 mm
15.02.2017 11.2 °C -3.3 °C 0 mm
16.02.2017 14.8 °C -1.6 °C 0 mm
17.02.2017 10.2 °C 5.2 °C 3.2 mm
18.02.2017 9.1 °C -0.3 °C 0 mm
19.02.2017 8.9 °C -3.2 °C 0.2 mm
20.02.2017 8.9 °C 4.5 °C 2.4 mm
21.02.2017 10.6 °C 7 °C 4.6 mm
22.02.2017 10.4 °C 8.7 °C 0.8 mm
23.02.2017 18.8 °C 5.8 °C 0.2 mm
24.02.2017 8.4 °C 1.3 °C 0 mm
25.02.2017 10.9 °C -2.9 °C 0 mm
26.02.2017 13.1 °C 0 °C 0 mm
27.02.2017 16.9 °C -0.2 °C 0.2 mm
28.02.2017 8.7 °C 3.1 °C 1.6 mm
 Hinweis zur Datenqualität
∅ Temperatur

1.1 °C

Abweichung vom Mittel

-0.9 °C

Niederschlag

35.8 mm

Abweichung vom Mittel

29 %

18.8 °C

Lufttemperatur
23.02.2017

1044 hPa

Luftdruck
27.12.2016

53.3 km/h

Windböen
13.01.2017

35.8 mm

Niederschlag
 

-13 °C

Lufttemperatur
23.01.2017

-12.3 °C

Bodentemperatur 5cm
23.01.2017

992 hPa

Luftdruck
13.01.2017
 Hinweis zur Datenqualität